timestamp,surface_pressure_avg,surface_temp_avg,battery_voltage,lat,long
2024-04-21 00:09:00+00:00,291.4681,1.3,12.17,47.84626,-54.09684
2024-04-21 00:19:00+00:00,287.4446,1.4,12.17,47.84626,-54.09684
2024-04-21 00:29:00+00:00,281.1031,1.4,12.17,47.84626,-54.09684
2024-04-21 00:39:00+00:00,271.6697,1.4,12.17,47.84626,-54.09684
2024-04-21 00:49:00+00:00,265.6214,1.4,12.17,47.84626,-54.09684
2024-04-21 00:59:00+00:00,258.6497,1.4,12.17,47.84626,-54.09684
2024-04-21 01:09:00+00:00,249.1015,1.38,12.17,47.84626,-54.09684
2024-04-21 01:19:00+00:00,239.4864,1.35,12.17,47.84626,-54.09684
2024-04-21 01:29:00+00:00,235.1964,1.31,12.17,47.84626,-54.09684
2024-04-21 01:39:00+00:00,231.2614,1.3,12.17,47.84626,-54.09684
2024-04-21 01:49:00+00:00,226.6514,1.3,12.17,47.84626,-54.09684
2024-04-21 01:59:00+00:00,222.3281,1.3,12.17,47.84626,-54.09684
2024-04-21 02:09:00+00:00,220.3948,1.3,12.17,47.84626,-54.09684
2024-04-21 02:19:00+00:00,217.1515,1.3,12.17,47.84626,-54.09684
2024-04-21 02:29:00+00:00,211.2448,1.3,12.17,47.84626,-54.09684
2024-04-21 02:39:00+00:00,207.6214,1.3,12.17,47.84626,-54.09684
2024-04-21 02:49:00+00:00,207.6098,1.32,12.17,47.84626,-54.09684
2024-04-21 02:59:00+00:00,205.0381,1.34,12.17,47.84626,-54.09684
2024-04-21 03:09:00+00:00,202.1681,1.34,12.17,47.84626,-54.09684
2024-04-21 03:19:00+00:00,201.8081,1.36,12.17,47.84626,-54.09684
2024-04-21 03:29:00+00:00,198.8764,1.37,12.17,47.84626,-54.09684
2024-04-21 03:39:00+00:00,198.1498,1.37,12.17,47.84626,-54.09684
2024-04-21 03:49:00+00:00,203.6181,1.32,12.17,47.84626,-54.09684
2024-04-21 03:59:00+00:00,202.8181,1.3,12.17,47.84626,-54.09684
2024-04-21 04:09:00+00:00,197.9415,1.3,12.17,47.84626,-54.09684
2024-04-21 04:19:00+00:00,200.1064,1.3,12.17,47.84626,-54.09684
2024-04-21 04:29:00+00:00,203.9881,1.35,12.17,47.84626,-54.09684
2024-04-21 04:39:00+00:00,199.8281,1.4,12.17,47.84626,-54.09684
2024-04-21 04:49:00+00:00,194.1215,1.45,12.17,47.84626,-54.09684
2024-04-21 04:59:00+00:00,195.5198,1.5,12.17,47.84626,-54.09684
2024-04-21 05:09:00+00:00,198.4981,1.5,12.17,47.84626,-54.09684
2024-04-21 07:19:00+00:00,245.0847,1.59,12.17,47.84626,-54.09684
2024-04-21 07:29:00+00:00,247.0314,1.6,12.17,47.84626,-54.09684
2024-04-21 07:39:00+00:00,251.1331,1.6,12.17,47.84626,-54.09684
2024-04-21 07:49:00+00:00,260.4914,1.6,12.17,47.84626,-54.09684
2024-04-21 07:59:00+00:00,266.5047,1.6,12.17,47.84626,-54.09684
2024-04-21 08:09:00+00:00,270.6781,1.63,12.17,47.84626,-54.09684
2024-04-21 08:19:00+00:00,276.7863,1.69,12.09,47.84626,-54.09684
2024-04-21 08:29:00+00:00,286.4381,1.7,12.09,47.84626,-54.09684
2024-04-21 08:39:00+00:00,293.7797,1.7,12.09,47.84626,-54.09684
2024-04-21 08:49:00+00:00,301.5598,1.71,12.09,47.84626,-54.09684
2024-04-21 08:59:00+00:00,306.2914,1.73,12.09,47.84626,-54.09684
2024-04-21 09:09:00+00:00,314.098,1.74,12.09,47.84626,-54.09684
